Regional Weather Roundup
Issued by NWS

Home | Current Version | Previous Version | Graphics & Text | Print | Product List | Glossary On
Versions: 1 2 3 4 5 6 7 8 9 10 11 12 13 14 15 16 17 18 19 20 21 22 23 24 25 26 27 28 29 30 31 32 33 34 35 36 37 38 39 40 41 42 43 44 45 46 47 48 49 50
000
ASUS44 KMEG 302110
RWRTN
TENNESSEE HOURLY STATE WEATHER ROUNDUP
NATIONAL WEATHER SERVICE MEMPHIS TN
400 PM CDT WED JUL 30 2014

TNZ002-004-019-021-049-052-054-088>092-302200-
WEST TENNESSEE

CITY           SKY/WX    TMP DP  RH WIND       PRES   REMARKS
MEMPHIS INTL   MOSUNNY   83  57  41 W5        30.08F
NWS MEMPHIS      N/A     83 N/A N/A MISG        N/A
JACKSON        MOSUNNY   80  59  48 SW7       30.09F
DYERSBURG      CLOUDY    79  55  44 W6        30.10S
UNION CITY     MOSUNNY   79  57  47 W3        30.09S
PARIS          PTSUNNY   79  55  43 CALM      30.10F
LEXINGTON      MOSUNNY   81  57  44 NW6       30.09S
SAVANNAH       MOSUNNY   82  54  38 CALM      30.09F
$$

TNZ008-025-027-028-033-062-065-066-302200-
NORTH MIDDLE TENNESSEE

CITY           SKY/WX    TMP DP  RH WIND       PRES   REMARKS
NASHVILLE      CLOUDY    82  55  39 N8        30.09F
DICKSON        PTSUNNY   79  52  38 NW6       30.10F
PORTLAND       SUNNY     79  54  41 W3        30.08F
CLARKSVILLE    PTSUNNY   81  53  37 W6        30.08F
LEBANON        PTSUNNY   80  56  43 VRB3      30.08S
SMYRNA         MOSUNNY   86  56  35 N8        30.09F
MURFREESBORO   PTSUNNY   80  57  45 VRB5      30.08F
COOKEVILLE     SUNNY     81  61  50 N5        30.10F
LIVINGSTON       N/A     76  56  49 NW6       30.11F
CROSSVILLE     CLOUDY    74  53  48 N3        30.13S
$$

TNZ061-075-076-078-094-096-097-302200-
SOUTH MIDDLE TENNESSEE

CITY           SKY/WX    TMP DP  RH WIND       PRES   REMARKS
LEWISBURG      PTSUNNY   81  56  42 CALM      30.08F
FAYETTEVILLE   MOSUNNY   79  55  44 NE8       30.08F
TULLAHOMA      MOSUNNY   79  57  47 N8        30.10F
WINCHESTER     SUNNY     79  55  44 VRB3      30.09F
MCMINNVILLE    SUNNY     79  61  53 N7        30.10F
COLUMBIA       SUNNY     81  57  44 N5        30.08S
SHELBYVILLE    MOSUNNY   81  59  47 N5        30.09F
$$

TNZ017-018-042-046-047-302200-
NORTHEAST TENNESSEE

CITY           SKY/WX    TMP DP  RH WIND       PRES   REMARKS
TRI CITIES     MOSUNNY   78  51  38 E3        30.10F
ELIZABETHTON   CLEAR     75  52  43 W7          N/A
$$

TNZ012-013-036-069-073-074-302200-
CENTRAL EAST TENNESSEE

CITY           SKY/WX    TMP DP  RH WIND       PRES   REMARKS
KNOXVILLE      CLOUDY    77  54  44 N6        30.08S
OAK RIDGE      PTSUNNY   78  56  46 VRB3      30.10S
GATLINBURG     CLEAR     77  52  41 N6        30.08S
MORRISTOWN     CLEAR     75  54  46 N6        30.11S
$$

TNZ083-085-099-302200-
SOUTHEAST TENNESSEE

CITY           SKY/WX    TMP DP  RH WIND       PRES   REMARKS
CHATTANOOGA    PTSUNNY   81  54  39 NE7       30.07F
$$

SKY/WX REPORTED AS FAIR MEANS FEW OR NO CLOUDS BELOW
12 THOUSAND FEET.




USA.gov is the U.S. government's official web portal to all federal, state and local government web resources and services.